timestamp,surface_pressure_avg,surface_temp_avg,battery_voltage,lat,long
2019-03-27 00:00:00+00:00,246.7731,0.89,13.05,47.84626,-54.09684
2019-03-27 00:10:00+00:00,251.4481,0.84,12.97,47.84626,-54.09684
2019-03-27 00:20:00+00:00,249.1231,0.8,12.97,47.84626,-54.09684
2019-03-27 00:30:00+00:00,254.0231,0.8,12.97,47.84626,-54.09684
2019-03-27 00:40:00+00:00,262.5181,0.8,12.97,47.84626,-54.09684
2019-03-27 00:50:00+00:00,266.3264,0.8,12.97,47.84626,-54.09684
2019-03-27 01:00:00+00:00,269.2697,0.8,12.89,47.84626,-54.09684
2019-03-27 01:10:00+00:00,282.023,0.8,12.81,47.84626,-54.09684
2019-03-27 01:20:00+00:00,287.3397,0.8,12.89,47.84626,-54.09684
2019-03-27 01:30:00+00:00,288.1247,0.8,12.89,47.84626,-54.09684
2019-03-27 01:40:00+00:00,294.4847,0.8,12.97,47.84626,-54.09684
2019-03-27 01:50:00+00:00,305.428,0.79,12.97,47.84626,-54.09684
2019-03-27 02:00:00+00:00,306.988,0.69,12.89,47.84626,-54.09684
2019-03-27 02:10:00+00:00,306.1597,0.7,12.81,47.84626,-54.09684
2019-03-27 02:20:00+00:00,314.998,0.79,12.89,47.84626,-54.09684
2019-03-27 02:30:00+00:00,323.3746,0.7,12.89,47.84626,-54.09684
2019-03-27 02:40:00+00:00,323.5246,0.7,12.89,47.84626,-54.09684
2019-03-27 02:50:00+00:00,324.2164,0.76,12.89,47.84626,-54.09684
2019-03-27 03:00:00+00:00,329.7313,0.8,12.81,47.84626,-54.09684
2019-03-27 03:10:00+00:00,334.2029,0.8,12.73,47.84626,-54.09684
2019-03-27 03:20:00+00:00,333.8546,0.78,12.81,47.84626,-54.09684
2019-03-27 03:30:00+00:00,334.7464,0.79,12.89,47.84626,-54.09684
2019-03-27 03:40:00+00:00,336.048,0.8,12.89,47.84626,-54.09684
2019-03-27 03:50:00+00:00,336.9429,0.78,12.89,47.84626,-54.09684
2019-03-27 04:00:00+00:00,337.2764,0.8,12.81,47.84626,-54.09684
2019-03-27 04:10:00+00:00,336.2913,0.8,12.73,47.84626,-54.09684
2019-03-27 04:20:00+00:00,335.9913,0.8,12.81,47.84626,-54.09684
2019-03-27 04:30:00+00:00,335.1047,0.8,12.81,47.84626,-54.09684
2019-03-27 04:40:00+00:00,333.0163,0.8,12.89,47.84626,-54.09684
2019-03-27 04:50:00+00:00,328.8547,0.8,12.89,47.84626,-54.09684
2019-03-27 05:00:00+00:00,326.9647,0.8,12.81,47.84626,-54.09684
2019-03-27 05:10:00+00:00,325.7847,0.8,12.73,47.84626,-54.09684
2019-03-27 05:20:00+00:00,324.5213,0.8,12.81,47.84626,-54.09684
2019-03-27 05:30:00+00:00,319.9097,0.8,12.81,47.84626,-54.09684
2019-03-27 05:40:00+00:00,315.033,0.8,12.81,47.84626,-54.09684
2019-03-27 05:50:00+00:00,311.403,0.8,12.89,47.84626,-54.09684
2019-03-27 06:00:00+00:00,310.183,0.79,12.81,47.84626,-54.09684
2019-03-27 06:10:00+00:00,302.663,0.77,12.73,47.84626,-54.09684
2019-03-27 06:20:00+00:00,295.8347,0.7,12.81,47.84626,-54.09684
2019-03-27 06:30:00+00:00,295.413,0.6,12.81,47.84626,-54.09684
2019-03-27 06:40:00+00:00,288.2147,0.69,12.81,47.84626,-54.09684
2019-03-27 06:50:00+00:00,279.048,0.7,12.81,47.84626,-54.09684
2019-03-27 07:00:00+00:00,272.868,0.7,12.73,47.84626,-54.09684
2019-03-27 07:10:00+00:00,271.1997,0.7,12.65,47.84626,-54.09684
2019-03-27 07:20:00+00:00,265.7164,0.71,12.73,47.84626,-54.09684
2019-03-27 07:30:00+00:00,255.5114,0.71,12.73,47.84626,-54.09684
2019-03-27 07:40:00+00:00,243.9581,0.7,12.81,47.84626,-54.09684
2019-03-27 07:50:00+00:00,240.3898,0.71,12.81,47.84626,-54.09684
2019-03-27 08:00:00+00:00,237.6181,0.7,12.73,47.84626,-54.09684
2019-03-27 08:10:00+00:00,226.2098,0.7,12.65,47.84626,-54.09684
2019-03-27 08:20:00+00:00,214.6165,0.7,12.73,47.84626,-54.09684
2019-03-27 08:30:00+00:00,210.4398,0.7,12.73,47.84626,-54.09684
2019-03-27 08:40:00+00:00,204.7481,0.7,12.73,47.84626,-54.09684
2019-03-27 08:50:00+00:00,199.4948,0.7,12.73,47.84626,-54.09684
2019-03-27 09:00:00+00:00,197.2614,0.7,12.65,47.84626,-54.09684
2019-03-27 09:10:00+00:00,191.7914,0.7,12.65,47.84626,-54.09684
2019-03-27 09:20:00+00:00,191.8565,0.69,12.65,47.84626,-54.09684
2019-03-27 09:30:00+00:00,193.4515,0.7,12.73,47.84626,-54.09684
2019-03-27 09:40:00+00:00,193.3181,0.7,12.81,47.84626,-54.09684
2019-03-27 09:50:00+00:00,194.5681,0.7,13.13,47.84626,-54.09684
2019-03-27 10:00:00+00:00,196.4065,0.7,13.44,47.84626,-54.09684
2019-03-27 10:10:00+00:00,197.2264,0.7,13.84,47.84626,-54.09684
2019-03-27 10:20:00+00:00,197.7398,0.72,14.48,47.84626,-54.09684
2019-03-27 10:30:00+00:00,198.6931,0.76,15.27,47.84626,-54.09684
2019-03-27 10:40:00+00:00,203.4265,0.77,16.39,47.84626,-54.09684
2019-03-27 10:50:00+00:00,209.2347,0.8,16.71,47.84626,-54.09684
2019-03-27 11:00:00+00:00,209.7881,0.8,15.91,47.84626,-54.09684
2019-03-27 11:10:00+00:00,209.2997,0.8,15.99,47.84626,-54.09684
2019-03-27 11:20:00+00:00,214.1847,0.8,16.79,47.84626,-54.09684
2019-03-27 11:30:00+00:00,216.8581,0.8,16.23,47.84626,-54.09684
2019-03-27 11:40:00+00:00,214.8014,0.67,16.15,47.84626,-54.09684
2019-03-27 11:50:00+00:00,218.6481,0.5,15.83,47.84626,-54.09684
2019-03-27 12:00:00+00:00,221.3381,0.71,15.35,47.84626,-54.09684
2019-03-27 12:10:00+00:00,218.8315,0.8,15.44,47.84626,-54.09684
2019-03-27 12:20:00+00:00,221.9515,0.8,15.6,47.84626,-54.09684
2019-03-27 12:30:00+00:00,227.5897,0.7,15.51,47.84626,-54.09684
2019-03-27 12:40:00+00:00,226.3814,0.7,15.51,47.84626,-54.09684
2019-03-27 12:50:00+00:00,227.9015,0.68,15.51,47.84626,-54.09684
2019-03-27 13:00:00+00:00,234.1781,0.61,15.27,47.84626,-54.09684
2019-03-27 13:10:00+00:00,235.4364,0.66,15.35,47.84626,-54.09684
2019-03-27 13:20:00+00:00,235.9314,0.61,15.44,47.84626,-54.09684
2019-03-27 13:30:00+00:00,237.7931,0.62,15.35,47.84626,-54.09684
2019-03-27 13:40:00+00:00,242.8781,0.7,15.35,47.84626,-54.09684
2019-03-27 13:50:00+00:00,243.5298,0.7,15.35,47.84626,-54.09684
2019-03-27 14:00:00+00:00,250.2747,0.39,15.11,47.84626,-54.09684
2019-03-27 14:10:00+00:00,255.7631,0.17,15.11,47.84626,-54.09684
2019-03-27 14:20:00+00:00,262.7814,0.16,15.27,47.84626,-54.09684
2019-03-27 14:30:00+00:00,266.9648,0.14,15.2,47.84626,-54.09684
2019-03-27 14:40:00+00:00,270.5564,0.16,15.2,47.84626,-54.09684
2019-03-27 14:50:00+00:00,271.3664,0.19,15.11,47.84626,-54.09684
2019-03-27 15:00:00+00:00,275.468,0.17,14.96,47.84626,-54.09684
2019-03-27 15:10:00+00:00,278.3914,0.1,14.96,47.84626,-54.09684
2019-03-27 15:20:00+00:00,282.133,0.09,15.04,47.84626,-54.09684
2019-03-27 15:30:00+00:00,281.8615,0.07,14.96,47.84626,-54.09684
2019-03-27 15:40:00+00:00,288.873,0.09,14.96,47.84626,-54.09684
2019-03-27 15:50:00+00:00,292.553,0.1,14.96,47.84626,-54.09684
2019-03-27 16:00:00+00:00,294.6931,0.21,14.88,47.84626,-54.09684
2019-03-27 16:10:00+00:00,294.7747,0.23,14.88,47.84626,-54.09684
2019-03-27 16:20:00+00:00,297.7364,0.29,14.96,47.84626,-54.09684
2019-03-27 16:30:00+00:00,295.5097,0.2,14.88,47.84626,-54.09684
2019-03-27 16:40:00+00:00,294.9664,0.1,14.88,47.84626,-54.09684
2019-03-27 16:50:00+00:00,296.7981,0.1,14.8,47.84626,-54.09684
2019-03-27 17:00:00+00:00,300.743,0.1,14.8,47.84626,-54.09684
2019-03-27 17:10:00+00:00,298.0563,0.1,14.72,47.84626,-54.09684
2019-03-27 17:20:00+00:00,298.0514,0.1,14.8,47.84626,-54.09684
2019-03-27 17:30:00+00:00,302.473,0.1,14.8,47.84626,-54.09684
2019-03-27 17:40:00+00:00,305.193,0.1,14.8,47.84626,-54.09684
2019-03-27 17:50:00+00:00,298.1147,0.1,14.72,47.84626,-54.09684
2019-03-27 18:00:00+00:00,296.3513,0.1,14.64,47.84626,-54.09684
2019-03-27 18:10:00+00:00,296.4014,0.11,14.64,47.84626,-54.09684
2019-03-27 18:20:00+00:00,289.8097,0.35,14.64,47.84626,-54.09684
2019-03-27 18:30:00+00:00,283.423,0.52,14.64,47.84626,-54.09684
2019-03-27 18:40:00+00:00,280.3214,0.6,14.64,47.84626,-54.09684
2019-03-27 18:50:00+00:00,278.1164,0.6,14.56,47.84626,-54.09684
2019-03-27 19:00:00+00:00,271.6781,0.75,14.48,47.84626,-54.09684
2019-03-27 19:10:00+00:00,266.5731,0.6,14.32,47.84626,-54.09684
2019-03-27 19:20:00+00:00,262.3731,0.7,14.4,47.84626,-54.09684
2019-03-27 19:30:00+00:00,259.888,0.8,14.32,47.84626,-54.09684
2019-03-27 19:40:00+00:00,251.2931,0.88,14.32,47.84626,-54.09684
2019-03-27 19:50:00+00:00,242.2431,0.92,14.32,47.84626,-54.09684
2019-03-27 20:00:00+00:00,239.4281,0.99,14.24,47.84626,-54.09684
2019-03-27 20:10:00+00:00,240.7181,0.9,14.08,47.84626,-54.09684
2019-03-27 20:20:00+00:00,235.6398,0.98,14.16,47.84626,-54.09684
2019-03-27 20:30:00+00:00,226.4181,1.0,14.16,47.84626,-54.09684
2019-03-27 20:40:00+00:00,224.6165,1.0,14.16,47.84626,-54.09684
2019-03-27 20:50:00+00:00,224.8631,0.9,14.16,47.84626,-54.09684
2019-03-27 21:00:00+00:00,217.4764,0.9,14.08,47.84626,-54.09684
2019-03-27 21:10:00+00:00,207.5631,0.8,13.92,47.84626,-54.09684
2019-03-27 21:20:00+00:00,207.2298,0.8,13.92,47.84626,-54.09684
2019-03-27 21:30:00+00:00,207.8215,0.8,13.84,47.84626,-54.09684
2019-03-27 21:40:00+00:00,202.1731,0.8,13.84,47.84626,-54.09684
2019-03-27 21:50:00+00:00,205.1831,0.8,13.84,47.84626,-54.09684
2019-03-27 22:00:00+00:00,210.1465,0.8,13.68,47.84626,-54.09684
2019-03-27 22:10:00+00:00,205.5797,0.8,13.53,47.84626,-54.09684
2019-03-27 22:20:00+00:00,205.3631,0.81,13.53,47.84626,-54.09684
2019-03-27 22:30:00+00:00,219.4664,0.8,13.44,47.84626,-54.09684
2019-03-27 22:40:00+00:00,224.7448,0.8,13.44,47.84626,-54.09684
2019-03-27 22:50:00+00:00,215.9381,0.7,13.37,47.84626,-54.09684
2019-03-27 23:00:00+00:00,218.3648,0.7,13.29,47.84626,-54.09684
2019-03-27 23:10:00+00:00,230.1981,0.6,13.13,47.84626,-54.09684
2019-03-27 23:20:00+00:00,234.4031,0.3,13.13,47.84626,-54.09684
2019-03-27 23:30:00+00:00,234.5847,0.2,13.13,47.84626,-54.09684
2019-03-27 23:40:00+00:00,239.9698,0.2,13.13,47.84626,-54.09684
2019-03-27 23:50:00+00:00,243.1998,0.2,13.13,47.84626,-54.09684
